Weather History for Omaha, NE

Change the Weather History Date:

Friday, November 9, 2012

  Actual Average Record
Temperature  
Mean Temperature 51 °F 42 °F  
Max Temperature 65 °F 53 °F 73 °F (1999)
Min Temperature 36 °F 32 °F 14 °F (1973)
Degree Days  
Heating Degree Days 14 23  
Month to date heating degree days 166 185  
Since 1 July heating degree days 686 670  
Cooling Degree Days 0 0  
Month to date cooling degree days 0 0  
Year to date cooling degree days 1649 1112  
Moisture  
Dew Point 44 °F    
Average Humidity 74    
Maximum Humidity 92    
Minimum Humidity 55    
Precipitation  
Precipitation 0.00 in 0.05 in 1.36 in (1940)
Month to date precipitation 0.09 0.54  
Year to date precipitation 20.47 28.48  
Snow  
Snow 0.00 in 0.00 in - ()
Month to date snowfall 0.0 0.3  
Since 1 July snowfall 0.0 0.6  
Snow Depth 0.00 in    
Sea Level Pressure  
Sea Level Pressure 29.77 in    
Wind  
Wind Speed 9 mph (East)    
Max Wind Speed 18 mph    
Max Gust Speed 23 mph    
Visibility 10 miles    
Events      
T = Trace of Precipitation, MM = Missing Value Source: NWS Daily Summary

Daily Weather History Graph

Daily Weather History Graph

Search for Another Location

Airport:

Trip Planner

Search our weather history database for the weather conditions in past years. The results will help you decide how hot, cold, wet, or windy it might be!

Date:

Astronomy

Nov. 09, 2012 Rise Set
Actual Time 7:05 AM CST 5:09 PM CST
Civil Twilight 6:35 AM CST 5:38 PM CST
Nautical Twilight 6:02 AM CST 6:11 PM CST
Astronomical Twilight 5:30 AM CST 6:43 PM CST
Moon 2:02 AM CST (11/9) 2:25 PM CST (11/9)
Length of Visible Light 11h 02m
Length of Day
10h 03m
Waning Crescent, 23% of the Moon is Illuminated
Nov 9
Waning Crescent
Nov 13
New
Nov 20
First Quarter
Nov 28
Full
Dec 6
Last Quarter

Hourly Weather History & Observations

Time (CST) Temp. Windchill Dew Point Humidity Pressure Visibility Wind Dir Wind Speed Gust Speed Precip Events Conditions
12:52 AM 45.0 °F 42.6 °F 37.9 °F 76% 29.86 in 10.0 mi ESE 4.6 mph - N/A   Clear
1:52 AM 46.9 °F - 37.9 °F 71% 29.86 in 10.0 mi ESE 6.9 mph - N/A   Clear
2:52 AM 45.0 °F 41.8 °F 37.9 °F 76% 29.86 in 10.0 mi ESE 5.8 mph - N/A   Clear
3:52 AM 37.9 °F - 35.1 °F 89% 29.85 in 10.0 mi Calm Calm - N/A   Clear
4:52 AM 37.9 °F 32.7 °F 35.1 °F 89% 29.86 in 10.0 mi North 6.9 mph - N/A   Scattered Clouds
5:52 AM 37.9 °F 32.1 °F 34.0 °F 86% 29.86 in 10.0 mi North 8.1 mph - N/A   Mostly Cloudy
6:52 AM 37.0 °F 29.3 °F 33.1 °F 86% 29.86 in 10.0 mi North 11.5 mph - N/A   Mostly Cloudy
7:52 AM 37.9 °F 32.1 °F 34.0 °F 86% 29.88 in 9.0 mi North 8.1 mph - N/A   Mostly Cloudy
8:52 AM 41.0 °F 37.1 °F 36.0 °F 82% 29.88 in 10.0 mi NNW 5.8 mph - N/A   Mostly Cloudy
9:52 AM 45.0 °F 42.6 °F 39.0 °F 80% 29.87 in 10.0 mi North 4.6 mph - N/A   Mostly Cloudy
10:52 AM 54.0 °F - 42.1 °F 64% 29.84 in 10.0 mi NNW 4.6 mph - N/A   Mostly Cloudy
11:52 AM 60.1 °F - 45.0 °F 57% 29.79 in 10.0 mi ENE 3.5 mph - N/A   Mostly Cloudy
12:52 PM 63.0 °F - 46.0 °F 54% 29.77 in 10.0 mi SE 11.5 mph - N/A   Scattered Clouds
1:52 PM 64.0 °F - 48.0 °F 56% 29.74 in 10.0 mi SE 17.3 mph - N/A   Scattered Clouds
2:52 PM 64.9 °F - 48.9 °F 56% 29.73 in 10.0 mi SE 13.8 mph - N/A   Scattered Clouds
3:52 PM 64.0 °F - 48.9 °F 58% 29.72 in 10.0 mi ESE 15.0 mph - N/A   Scattered Clouds
4:52 PM 63.0 °F - 48.9 °F 60% 29.70 in 10.0 mi ESE 8.1 mph - N/A   Partly Cloudy
5:52 PM 60.1 °F - 48.9 °F 67% 29.71 in 10.0 mi ESE 6.9 mph - N/A   Partly Cloudy
6:52 PM 60.1 °F - 50.0 °F 69% 29.71 in 10.0 mi SE 9.2 mph - N/A   Partly Cloudy
7:52 PM 59.0 °F - 51.1 °F 75% 29.71 in 10.0 mi SE 9.2 mph - N/A   Scattered Clouds
8:52 PM 61.0 °F - 54.0 °F 78% 29.69 in 10.0 mi SSE 12.7 mph - N/A   Scattered Clouds
9:52 PM 62.1 °F - 55.0 °F 78% 29.68 in 10.0 mi SSE 16.1 mph - N/A   Partly Cloudy
10:52 PM 62.1 °F - 55.0 °F 78% 29.65 in 10.0 mi SE 16.1 mph - N/A   Clear
11:52 PM 61.0 °F - 55.9 °F 83% 29.63 in 10.0 mi SE 15.0 mph - N/A   Clear